DLH1031 LFPG-EDDF

Flight info

Callsign DLH1031
Flight time 0h 50m
Altitude 23000
Route RANUX DCT VALEK DCT LIPNI UN858 LIMGO Z111 RAMOB IMCOM1A
Aircraft A20N/M-SDE2E3FGHIRWXY/LB1

Departure

Time 2026-05-04 10:29
Airport Charles de Gaulle International Airport (LFPG)

Arrival

Time 2026-05-04 11:20
Airport Frankfurt Main Airport (EDDF)
Time Latitude Longitude Altitude Speed Heading
2026-05-04 09:46 49.00234 2.59203 357 ft 0 kts 266°
2026-05-04 09:55 49.00234 2.59204 356 ft 0 kts 266°
2026-05-04 10:00 49.00235 2.59221 365 ft 4 kts 267°
2026-05-04 10:02 49.00214 2.59351 363 ft 1 kts 355°
2026-05-04 10:04 49.00223 2.59350 362 ft 4 kts 356°
2026-05-04 10:05 49.00260 2.59346 358 ft 5 kts 353°
2026-05-04 10:05 49.00294 2.59340 358 ft 5 kts 355°
2026-05-04 10:05 49.00326 2.59337 360 ft 4 kts 356°
2026-05-04 10:05 49.00355 2.59334 361 ft 4 kts 357°
2026-05-04 10:06 49.00383 2.59342 356 ft 4 kts 26°
2026-05-04 10:06 49.00400 2.59374 362 ft 5 kts 64°
2026-05-04 10:06 49.00424 2.59435 362 ft 8 kts 43°
2026-05-04 10:08 49.00572 2.59437 356 ft 6 kts 357°
2026-05-04 10:08 49.00633 2.59433 356 ft 9 kts 356°
2026-05-04 10:08 49.00696 2.59427 356 ft 9 kts 356°
2026-05-04 10:08 49.00758 2.59419 361 ft 9 kts 354°
2026-05-04 10:09 49.00821 2.59410 358 ft 9 kts 356°
2026-05-04 10:09 49.00875 2.59403 364 ft 7 kts 354°
2026-05-04 10:09 49.00921 2.59397 363 ft 6 kts 355°
2026-05-04 10:09 49.00971 2.59384 364 ft 8 kts 335°
2026-05-04 10:10 49.00995 2.59314 361 ft 8 kts 276°
2026-05-04 10:10 49.00993 2.59235 358 ft 7 kts 266°
2026-05-04 10:10 49.00989 2.59158 358 ft 7 kts 262°
2026-05-04 10:10 49.00982 2.59088 358 ft 6 kts 259°
2026-05-04 10:11 49.00971 2.59024 358 ft 7 kts 252°
2026-05-04 10:11 49.00958 2.58952 359 ft 9 kts 259°
2026-05-04 10:11 49.00945 2.58795 361 ft 20 kts 264°
2026-05-04 10:11 49.00933 2.58579 358 ft 20 kts 266°
2026-05-04 10:12 49.00922 2.58369 366 ft 19 kts 263°
2026-05-04 10:12 49.00977 2.58229 362 ft 17 kts 355°
2026-05-04 10:12 49.01090 2.58217 358 ft 16 kts 353°
2026-05-04 10:12 49.01198 2.58203 361 ft 15 kts 355°
2026-05-04 10:13 49.01301 2.58189 360 ft 15 kts 355°
2026-05-04 10:13 49.01404 2.58176 358 ft 15 kts 355°
2026-05-04 10:13 49.01505 2.58162 361 ft 14 kts 353°
2026-05-04 10:13 49.01602 2.58150 366 ft 14 kts 356°
2026-05-04 10:14 49.01700 2.58140 358 ft 14 kts 356°
2026-05-04 10:14 49.01797 2.58128 358 ft 14 kts 355°
2026-05-04 10:16 49.02070 2.57309 358 ft 13 kts 265°
2026-05-04 10:16 49.02062 2.57169 364 ft 13 kts 265°
2026-05-04 10:16 49.02053 2.57007 358 ft 20 kts 265°
2026-05-04 10:16 49.02041 2.56758 360 ft 26 kts 266°
2026-05-04 10:17 49.02026 2.56489 363 ft 25 kts 266°
2026-05-04 10:17 49.02062 2.56286 358 ft 16 kts 322°
2026-05-04 10:19 49.02048 2.55219 358 ft 32 kts 265°
2026-05-04 10:19 49.02030 2.54884 364 ft 31 kts 265°
2026-05-04 10:19 49.02014 2.54565 360 ft 29 kts 265°
2026-05-04 10:19 49.01996 2.54262 358 ft 28 kts 262°
2026-05-04 10:20 49.01894 2.54040 362 ft 25 kts 261°
2026-05-04 10:20 49.01882 2.53793 360 ft 22 kts 263°
2026-05-04 10:20 49.01870 2.53567 358 ft 21 kts 264°
2026-05-04 10:20 49.01858 2.53359 362 ft 19 kts 264°
2026-05-04 10:21 49.01849 2.53171 358 ft 17 kts 265°
2026-05-04 10:21 49.01839 2.52995 358 ft 16 kts 265°
2026-05-04 10:21 49.01831 2.52832 366 ft 15 kts 265°
2026-05-04 10:21 49.01823 2.52684 358 ft 13 kts 265°
2026-05-04 10:22 49.01809 2.52426 359 ft 11 kts 265°
2026-05-04 10:22 49.01803 2.52316 358 ft 10 kts 265°
2026-05-04 10:22 49.01797 2.52218 358 ft 9 kts 265°
2026-05-04 10:23 49.01815 2.52143 362 ft 7 kts 321°
2026-05-04 10:23 49.01857 2.52118 361 ft 6 kts 335°
2026-05-04 10:25 49.01857 2.51321 360 ft 17 kts 294°
2026-05-04 10:25 49.01945 2.51247 362 ft 12 kts 13°
2026-05-04 10:25 49.01953 2.51250 360 ft 0 kts 17°
2026-05-04 10:27 49.01954 2.51251 360 ft 1 kts 17°
2026-05-04 10:27 49.01968 2.51258 360 ft 3 kts 18°
2026-05-04 10:28 49.01986 2.51268 360 ft 0 kts 27°
2026-05-04 10:28 49.02000 2.51283 361 ft 11 kts 36°
2026-05-04 10:28 49.02070 2.51437 359 ft 15 kts 83°
2026-05-04 10:28 49.02080 2.51622 362 ft 26 kts 85°
2026-05-04 10:29 49.02110 2.52180 356 ft 86 kts 85°
2026-05-04 10:29 49.02177 2.53429 366 ft 149 kts 85°
2026-05-04 10:29 49.02258 2.55119 786 ft 163 kts 87°
2026-05-04 10:29 49.02330 2.56849 1579 ft 164 kts 88°
2026-05-04 10:30 49.02429 2.58564 2267 ft 157 kts 87°
2026-05-04 10:30 49.02526 2.60247 2485 ft 172 kts 87°
2026-05-04 10:30 49.02633 2.62266 2797 ft 211 kts 87°
2026-05-04 10:30 49.02761 2.64713 3116 ft 248 kts 87°
2026-05-04 10:31 49.02906 2.67420 3902 ft 261 kts 87°
2026-05-04 10:31 49.03055 2.70206 4945 ft 266 kts 87°
2026-05-04 10:32 49.03920 2.87911 10656 ft 301 kts 88°
2026-05-04 10:33 49.04078 2.91241 11083 ft 327 kts 88°
2026-05-04 10:33 49.04296 2.94807 11421 ft 350 kts 85°
2026-05-04 10:33 49.04568 2.98578 11975 ft 364 kts 85°
2026-05-04 10:33 49.04857 3.02462 12723 ft 372 kts 85°
2026-05-04 10:34 49.05149 3.06413 13561 ft 377 kts 85°
2026-05-04 10:34 49.05443 3.10406 14353 ft 382 kts 86°
2026-05-04 10:34 49.05738 3.14454 15114 ft 386 kts 86°
2026-05-04 10:34 49.06034 3.18548 15860 ft 391 kts 86°
2026-05-04 10:35 49.06332 3.22689 16608 ft 395 kts 86°
2026-05-04 10:35 49.06631 3.26867 17347 ft 399 kts 86°
2026-05-04 10:35 49.06932 3.31100 18066 ft 404 kts 87°
2026-05-04 10:35 49.07234 3.35374 18699 ft 408 kts 87°
2026-05-04 10:36 49.07538 3.39710 19298 ft 413 kts 87°
2026-05-04 10:36 49.07845 3.44097 19910 ft 417 kts 88°
2026-05-04 10:36 49.08153 3.48519 20507 ft 421 kts 88°
2026-05-04 10:36 49.08460 3.52955 21082 ft 425 kts 88°
2026-05-04 10:37 49.08770 3.57479 21687 ft 428 kts 88°
2026-05-04 10:37 49.09075 3.61954 22284 ft 432 kts 88°
2026-05-04 10:37 49.09385 3.66532 22797 ft 436 kts 89°
2026-05-04 10:37 49.09692 3.71102 22972 ft 444 kts 89°
2026-05-04 10:39 49.11619 4.00283 22995 ft 462 kts 88°
2026-05-04 10:39 49.11932 4.05167 22991 ft 462 kts 89°
2026-05-04 10:39 49.12243 4.10044 22988 ft 462 kts 89°
2026-05-04 10:40 49.12554 4.14935 22991 ft 462 kts 89°
2026-05-04 10:40 49.12862 4.19825 22993 ft 462 kts 89°
2026-05-04 10:40 49.13167 4.24698 22994 ft 462 kts 89°
2026-05-04 10:40 49.13472 4.29601 22997 ft 462 kts 89°
2026-05-04 10:41 49.13851 4.34482 22992 ft 465 kts 84°
2026-05-04 10:41 49.14696 4.39282 22997 ft 469 kts 76°
2026-05-04 10:41 49.15794 4.43918 22991 ft 471 kts 72°
2026-05-04 10:41 49.17040 4.48563 22990 ft 473 kts 70°
2026-05-04 10:42 49.18343 4.53180 22994 ft 473 kts 70°
2026-05-04 10:42 49.19654 4.57787 22995 ft 473 kts 70°
2026-05-04 10:42 49.20535 4.60909 22992 ft 473 kts 70°
2026-05-04 10:42 49.22239 4.67042 22993 ft 473 kts 70°
2026-05-04 10:43 49.23505 4.71681 22996 ft 473 kts 71°
2026-05-04 10:44 49.31800 5.02764 22997 ft 473 kts 71°
2026-05-04 10:45 49.33029 5.07403 22998 ft 473 kts 71°
2026-05-04 10:45 49.34263 5.12068 22999 ft 473 kts 71°
2026-05-04 10:45 49.35498 5.16746 23001 ft 473 kts 71°
2026-05-04 10:45 49.36731 5.21426 23000 ft 472 kts 71°
2026-05-04 10:46 49.37960 5.26105 22997 ft 472 kts 71°
2026-05-04 10:46 49.39186 5.30778 23001 ft 472 kts 71°
2026-05-04 10:46 49.40409 5.35453 23002 ft 472 kts 71°
2026-05-04 10:46 49.41629 5.40128 22999 ft 472 kts 71°
2026-05-04 10:47 49.42848 5.44804 23000 ft 472 kts 71°
2026-05-04 10:47 49.44065 5.49485 23004 ft 472 kts 71°
2026-05-04 10:47 49.45283 5.54180 23006 ft 472 kts 71°
2026-05-04 10:47 49.46495 5.58859 23004 ft 471 kts 71°
2026-05-04 10:49 49.54879 5.92080 23014 ft 471 kts 72°
2026-05-04 10:49 49.55942 5.96412 23016 ft 471 kts 72°
2026-05-04 10:50 49.57100 6.01118 23020 ft 471 kts 71°
2026-05-04 10:51 49.64652 6.30301 23022 ft 473 kts 64°
2026-05-04 10:52 49.66244 6.34749 23019 ft 474 kts 62°
2026-05-04 10:52 49.67896 6.39150 23018 ft 474 kts 61°
2026-05-04 10:52 49.69579 6.43525 23014 ft 474 kts 61°
2026-05-04 10:54 49.79626 6.69730 19196 ft 450 kts 65°
2026-05-04 10:54 49.80799 6.74175 18497 ft 444 kts 72°
2026-05-04 10:56 49.87734 7.04624 13269 ft 411 kts 73°
2026-05-04 10:56 49.88719 7.08769 12522 ft 408 kts 73°
2026-05-04 10:56 49.89685 7.12878 11770 ft 403 kts 73°
2026-05-04 10:57 49.90637 7.16961 11250 ft 401 kts 73°
2026-05-04 10:57 49.91568 7.20983 11046 ft 402 kts 73°
2026-05-04 10:57 49.92513 7.25072 11015 ft 402 kts 73°
2026-05-04 10:57 49.93455 7.29152 11020 ft 401 kts 73°
2026-05-04 10:58 49.94342 7.32995 11016 ft 402 kts 73°
2026-05-04 10:58 49.95285 7.37092 11017 ft 402 kts 73°
2026-05-04 10:58 49.96223 7.41176 11016 ft 402 kts 73°
2026-05-04 10:58 49.97166 7.45275 11030 ft 402 kts 73°
2026-05-04 10:59 49.98091 7.49316 11020 ft 402 kts 73°
2026-05-04 10:59 49.99030 7.53414 11002 ft 403 kts 73°
2026-05-04 10:59 49.99967 7.57516 11010 ft 403 kts 73°
2026-05-04 10:59 50.00908 7.61627 11003 ft 403 kts 73°
2026-05-04 11:00 50.01850 7.65738 10999 ft 404 kts 73°
2026-05-04 11:01 50.08480 7.94440 10883 ft 398 kts 73°
2026-05-04 11:02 50.09418 7.98466 10175 ft 394 kts 73°
2026-05-04 11:02 50.10356 8.02462 9488 ft 388 kts 73°
2026-05-04 11:05 50.21215 8.46977 8011 ft 301 kts 73°
2026-05-04 11:06 50.21948 8.50014 7995 ft 302 kts 73°
2026-05-04 11:06 50.22695 8.53076 8000 ft 302 kts 73°
2026-05-04 11:06 50.23437 8.56131 7993 ft 301 kts 73°
2026-05-04 11:06 50.24177 8.59194 7996 ft 301 kts 73°
2026-05-04 11:08 50.28274 8.80517 5838 ft 278 kts 115°
2026-05-04 11:10 50.22101 8.94029 4580 ft 197 kts 134°
2026-05-04 11:12 50.15750 8.98905 4031 ft 135 kts 216°
2026-05-04 11:12 50.15022 8.97990 4018 ft 136 kts 222°
2026-05-04 11:12 50.14324 8.96983 4002 ft 138 kts 223°
2026-05-04 11:12 50.13623 8.95945 3994 ft 139 kts 224°
2026-05-04 11:13 50.12963 8.94839 3993 ft 140 kts 232°
2026-05-04 11:13 50.12450 8.93557 4000 ft 140 kts 240°
2026-05-04 11:13 50.12041 8.92184 4000 ft 140 kts 244°
2026-05-04 11:13 50.11687 8.90767 4003 ft 140 kts 246°
2026-05-04 11:14 50.11350 8.89342 4001 ft 140 kts 245°
2026-05-04 11:14 50.11009 8.87919 3995 ft 140 kts 245°
2026-05-04 11:14 50.10666 8.86500 3988 ft 140 kts 245°
2026-05-04 11:16 50.08306 8.76643 2769 ft 138 kts 247°
2026-05-04 11:16 50.07972 8.75242 2572 ft 138 kts 246°
2026-05-04 11:16 50.07663 8.73950 2396 ft 134 kts 246°
2026-05-04 11:17 50.07353 8.72648 2232 ft 122 kts 246°
2026-05-04 11:17 50.07072 8.71471 2055 ft 110 kts 246°
2026-05-04 11:19 50.04730 8.61669 821 ft 133 kts 251°
2026-05-04 11:19 50.04402 8.60315 629 ft 134 kts 251°
2026-05-04 11:19 50.04084 8.58970 429 ft 130 kts 250°
2026-05-04 11:19 50.03787 8.57721 373 ft 113 kts 250°
2026-05-04 11:20 50.03565 8.56806 361 ft 65 kts 249°
2026-05-04 11:20 50.03456 8.56352 363 ft 37 kts 249°
2026-05-04 11:20 50.03447 8.55992 363 ft 34 kts 279°
2026-05-04 11:20 50.03464 8.55823 365 ft 0 kts 280°
2026-05-04 11:25 50.03465 8.55813 357 ft 3 kts 280°
2026-05-04 11:25 50.03469 8.55775 359 ft 4 kts 280°
2026-05-04 11:26 50.03482 8.55664 358 ft 7 kts 279°
2026-05-04 11:27 50.03345 8.54855 357 ft 11 kts 248°
2026-05-04 11:28 50.03325 8.54774 351 ft 13 kts 249°
2026-05-04 11:28 50.03293 8.54642 349 ft 15 kts 249°
2026-05-04 11:28 50.03282 8.54515 354 ft 9 kts 302°
2026-05-04 11:28 50.03314 8.54481 356 ft 4 kts 339°
2026-05-04 11:29 50.03329 8.54472 354 ft 1 kts 340°
2026-05-04 11:29 50.03379 8.54447 355 ft 15 kts 339°
2026-05-04 11:29 50.03476 8.54390 353 ft 15 kts 338°
2026-05-04 11:29 50.03570 8.54332 360 ft 14 kts 340°
2026-05-04 11:31 50.03669 8.54360 358 ft 13 kts 68°
2026-05-04 11:33 50.03873 8.55215 361 ft 8 kts 71°
2026-05-04 11:33 50.03894 8.55301 355 ft 11 kts 68°
2026-05-04 11:33 50.03924 8.55426 362 ft 14 kts 70°
2026-05-04 11:34 50.03962 8.55582 360 ft 17 kts 70°
2026-05-04 11:34 50.04004 8.55759 362 ft 17 kts 70°
2026-05-04 11:34 50.04044 8.55936 361 ft 17 kts 70°
2026-05-04 11:34 50.04081 8.56080 360 ft 10 kts 68°
2026-05-04 11:35 50.04085 8.56098 362 ft 1 kts 69°
2026-05-04 11:35 50.04111 8.56121 360 ft 6 kts
2026-05-04 11:35 50.04135 8.56100 358 ft 4 kts 328°
2026-05-04 11:35 50.04164 8.56067 358 ft 6 kts 323°
2026-05-04 11:36 50.04196 8.56045 355 ft 4 kts 346°
2026-05-04 11:36 50.04214 8.56038 355 ft 4 kts 345°
2026-05-04 11:36 50.04226 8.56032 355 ft 4 kts 341°
2026-05-04 11:36 50.04246 8.56019 364 ft 2 kts 331°
2026-05-04 11:37 50.04253 8.56012 362 ft 1 kts 326°
2026-05-04 11:37 50.04298 8.55955 364 ft 13 kts 335°
2026-05-04 11:37 50.04414 8.55904 365 ft 21 kts
2026-05-04 11:37 50.04542 8.55932 368 ft 18 kts 21°
2026-05-04 11:38 50.04608 8.56092 369 ft 19 kts 70°
2026-05-04 11:38 50.04635 8.56200 366 ft 8 kts 69°
2026-05-04 11:38 50.04655 8.56282 365 ft 8 kts 71°
2026-05-04 11:38 50.04674 8.56366 367 ft 9 kts 70°
2026-05-04 11:39 50.04695 8.56455 368 ft 9 kts 68°
2026-05-04 11:39 50.04715 8.56523 370 ft 4 kts 44°
2026-05-04 11:40 50.04787 8.56489 364 ft 0 kts 339°